"startDT [UTC]","vpos","CH4 [ppm]","stdev(CH4) [ppm]","CO2 [ppm]","stdev(CO2) [ppm]","H2O_reported [%]","stdev(H2O_reported)","CavityPressure [torr]","CavityTemp [C]","OutletValve","CH4_dry [ppm]","CO2_dry [ppm]","DasTemp [C]","EtalonTemp [C]","WarmBoxTemp [C]","MPVPosition","T_ECpre [C]","T_EC1 [C]","T_EC2 [C]","p_inlet [hPa]","p_in [hPa]","p_out [hPa]","T_inlet [C]","RH_inlet [%]","dwpt_inlet [C]","T_vent [C]","RH_vent [%]","dwpt_vent [C]","flow_vent [l min-1]","flow_inlet [l min-1]","dwpt_sample [C]","T_room [C]"
2016-09-02 00:00:00,3.0,1.87999,0.01769,398.312,0.778,0.2497,0.4257,139.938,45.000,31346.67026,1.88754,399.740,39.003,45.069,45.000,0.00,0.10,-272.76,-272.84,-19,427,-958,28.8,26.1,7.4,28.4,27.0,7.6,5.73,1.64,9.6,32.0
2016-09-02 00:01:00,3.0,1.87649,0.00042,397.216,0.045,0.0412,0.0032,139.997,45.000,31305.20853,1.87725,397.413,39.025,45.068,45.000,0.00,0.10,-272.78,-272.84,-17,426,-958,28.8,26.4,7.6,28.4,27.2,7.7,5.73,1.85,9.6,32.0
2016-09-02 00:02:00,3.0,1.87623,0.00033,397.381,0.040,0.0352,0.0030,140.000,45.000,31289.60876,1.87688,397.547,39.034,45.069,45.000,0.00,0.10,-272.77,-272.84,-19,426,-958,28.8,26.6,7.7,28.5,27.5,7.9,5.73,1.65,9.6,31.9
2016-09-02 00:03:00,3.0,1.87632,0.00039,397.469,0.034,0.0280,0.0022,140.002,45.000,31277.23934,1.87682,397.604,39.052,45.068,45.000,0.00,0.10,-272.77,-272.83,-18,426,-958,28.8,26.7,7.7,28.5,27.6,7.9,5.73,1.89,9.6,31.9
2016-09-02 00:04:00,3.0,1.87656,0.00031,397.510,0.026,0.0217,0.0027,140.000,45.000,31267.28624,1.87696,397.614,39.063,45.068,45.000,0.00,0.10,-272.77,-272.85,-19,426,-958,28.8,26.5,7.6,28.5,27.6,8.0,5.73,1.61,9.6,31.7
2016-09-02 00:05:00,3.0,1.87680,0.00044,397.505,0.029,0.0167,0.0018,139.999,45.000,31259.03101,1.87710,397.585,39.065,45.068,45.000,0.00,0.10,-272.78,-272.84,-18,426,-958,28.8,26.7,7.8,28.5,27.5,8.0,5.73,1.92,9.6,31.8
2016-09-02 00:06:00,3.0,1.87701,0.00040,397.557,0.033,0.0129,0.0020,139.997,45.000,31249.65635,1.87723,397.619,39.080,45.068,45.000,0.00,0.10,-272.76,-272.84,-19,426,-958,28.8,26.5,7.7,28.5,27.6,8.0,5.73,1.60,9.6,31.8
2016-09-02 00:07:00,3.0,1.87655,0.00034,397.552,0.032,0.0111,0.0018,140.000,45.000,31246.80298,1.87679,397.603,39.087,45.068,45.000,0.00,0.10,-272.77,-272.84,-19,426,-958,28.8,26.5,7.7,28.5,27.5,7.9,5.73,1.94,9.6,31.8
2016-09-02 00:08:00,3.0,1.87676,0.00039,397.568,0.029,0.0097,0.0019,140.000,45.000,31240.96794,1.87692,397.616,39.074,45.068,45.000,0.00,0.10,-272.78,-272.84,-18,426,-958,28.8,26.4,7.6,28.5,27.4,7.9,5.73,1.60,9.6,31.9
2016-09-02 00:09:00,3.0,1.87681,0.00038,397.572,0.032,0.0085,0.0017,139.999,45.000,31237.50174,1.87697,397.611,39.063,45.068,45.000,0.00,0.10,-272.78,-272.83,-19,426,-958,28.8,26.4,7.6,28.5,27.4,7.9,5.73,1.92,9.6,32.0
2016-09-02 00:10:00,3.0,1.87654,0.00036,397.595,0.028,0.0069,0.0020,139.999,45.000,31235.71117,1.87669,397.628,39.047,45.068,45.000,0.00,0.10,-272.77,-272.83,-18,426,-958,28.8,26.5,7.7,28.5,27.4,7.9,5.73,1.62,9.6,31.9
2016-09-02 00:11:00,3.0,1.87683,0.00039,397.578,0.030,0.0068,0.0016,140.001,45.000,31234.13044,1.87694,397.611,39.030,45.069,45.000,0.00,0.10,-272.77,-272.85,-19,426,-958,28.9,26.6,7.7,28.5,27.5,8.0,5.73,1.89,9.6,31.9
2016-09-02 00:12:00,3.0,1.87658,0.00042,397.605,0.029,0.0060,0.0020,139.999,45.000,31230.13889,1.87668,397.632,39.001,45.069,45.000,0.00,0.10,-272.77,-272.84,-18,426,-958,28.8,26.8,7.8,28.5,27.6,8.0,5.73,1.67,9.6,31.9
2016-09-02 00:13:00,3.0,1.87699,0.00028,397.603,0.029,0.0056,0.0020,139.999,45.000,31226.03194,1.87709,397.629,39.001,45.069,45.001,0.00,0.10,-272.76,-272.83,-20,426,-958,28.8,26.5,7.7,28.5,27.5,8.0,5.73,1.83,9.6,31.9
2016-09-02 00:14:00,3.0,1.87697,0.00029,397.623,0.024,0.0056,0.0020,140.001,45.000,31223.79874,1.87707,397.649,39.003,45.069,45.001,0.00,0.10,-272.77,-272.84,-18,426,-958,28.9,26.5,7.7,28.6,27.4,7.9,5.73,1.72,9.6,31.8
2016-09-02 00:15:00,3.0,1.87702,0.00043,397.630,0.037,0.0042,0.0019,140.002,45.000,31223.66928,1.87710,397.649,39.054,45.069,45.001,0.00,0.10,-272.77,-272.85,-20,426,-958,28.8,26.6,7.8,28.6,27.5,8.0,5.73,1.77,9.6,31.8
2016-09-02 00:16:00,3.0,1.87720,0.00025,397.621,0.028,0.0034,0.0017,140.000,45.000,31222.69743,1.87727,397.637,39.065,45.069,45.000,0.00,0.10,-272.76,-272.83,-18,426,-958,28.9,26.6,7.8,28.6,27.6,8.0,5.73,1.79,9.7,31.8
2016-09-02 00:17:00,3.0,1.87700,0.00041,397.635,0.033,0.0039,0.0021,139.999,45.000,31222.26801,1.87706,397.655,39.085,45.068,45.000,0.00,0.10,-272.77,-272.84,-20,426,-958,28.9,26.6,7.8,28.6,27.6,8.1,5.73,1.70,9.7,31.8
2016-09-02 00:18:00,3.0,1.87708,0.00043,397.628,0.032,0.0031,0.0015,140.002,45.000,31223.07473,1.87715,397.643,39.095,45.068,45.000,0.00,0.10,-272.78,-272.84,-18,426,-958,28.9,26.3,7.6,28.6,27.3,7.9,5.73,1.86,9.7,31.8
2016-09-02 00:19:00,3.0,1.87710,0.00037,397.619,0.029,0.0027,0.0014,140.001,45.000,31223.59668,1.87713,397.631,39.076,45.068,45.000,0.00,0.10,-272.76,-272.84,-20,426,-958,28.9,26.4,7.7,28.6,27.3,8.0,5.73,1.64,9.7,31.8
2016-09-02 00:20:00,0.0,1.93089,0.01792,398.782,0.488,1.1181,0.4450,140.057,45.000,31984.28214,1.95051,404.194,39.064,45.068,45.000,0.00,0.10,-272.76,-272.83,-20,539,-956,28.9,26.6,7.8,28.6,27.5,8.1,5.73,1.96,9.7,31.8
2016-09-02 00:21:00,0.0,1.93320,0.00108,398.265,0.133,1.3477,0.0056,140.000,45.000,32041.17697,1.96011,405.018,39.063,45.068,45.000,0.00,0.10,-272.78,-272.84,-20,539,-956,29.0,26.7,7.9,28.6,27.7,8.2,5.73,1.73,9.7,31.9
2016-09-02 00:22:00,0.0,1.93191,0.00138,398.026,0.149,1.3379,0.0037,140.001,45.000,32057.48466,1.95855,404.725,39.063,45.068,45.000,0.00,0.10,-272.78,-272.83,-21,540,-956,29.0,26.3,7.7,28.7,27.5,8.1,5.73,1.81,9.7,32.0
2016-09-02 00:23:00,0.0,1.93279,0.00101,398.009,0.115,1.3367,0.0030,139.999,45.000,32069.48617,1.95921,404.686,39.062,45.069,45.000,0.00,0.10,-272.76,-272.83,-20,540,-956,29.0,26.2,7.6,28.7,27.3,7.9,5.73,1.86,9.7,32.0
2016-09-02 00:24:00,0.0,1.93345,0.00059,398.100,0.047,1.3530,0.0082,140.003,45.000,32082.65701,1.96036,404.871,39.081,45.069,45.000,0.00,0.10,-272.77,-272.84,-21,540,-956,29.0,26.6,7.8,28.7,27.4,8.0,5.73,1.69,9.7,31.9
2016-09-02 00:25:00,0.0,1.93366,0.00051,398.114,0.052,1.3569,0.0028,139.999,45.000,32090.53823,1.96064,404.905,39.120,45.068,45.000,0.00,0.10,-272.77,-272.84,-21,540,-956,29.0,26.6,7.9,28.7,27.6,8.1,5.73,1.95,9.7,31.9
2016-09-02 00:26:00,0.0,1.93414,0.00040,398.103,0.078,1.3621,0.0059,139.999,45.000,32095.91607,1.96123,404.924,39.125,45.068,45.000,0.00,0.10,-272.76,-272.83,-20,540,-956,29.0,26.7,7.9,28.6,27.6,8.1,5.73,1.63,9.7,31.9
2016-09-02 00:27:00,0.0,1.93472,0.00047,397.920,0.055,1.3723,0.0060,140.000,45.000,32104.14755,1.96199,404.790,39.125,45.068,45.000,0.00,0.10,-272.77,-272.83,-22,540,-956,29.0,26.9,8.0,28.7,27.8,8.3,5.73,1.98,9.7,32.0
2016-09-02 00:28:00,0.0,1.93400,0.00171,397.856,0.144,1.3755,0.0041,140.003,45.000,32109.46449,1.96159,404.751,39.125,45.068,45.000,0.00,0.10,-272.77,-272.84,-20,540,-956,29.0,26.8,8.0,28.7,27.9,8.3,5.73,1.64,9.7,32.1
2016-09-02 00:29:00,0.0,1.93285,0.00097,397.761,0.098,1.3597,0.0024,140.000,45.000,32110.10772,1.95979,404.559,39.120,45.068,45.000,0.00,0.10,-272.77,-272.83,-21,540,-956,29.0,26.5,7.8,28.7,27.6,8.2,5.73,1.94,9.7,32.0
2016-09-02 00:30:00,0.0,1.93159,0.00046,397.625,0.055,1.3698,0.0066,140.002,45.000,32116.61665,1.95880,404.475,39.123,45.068,45.000,0.00,0.10,-272.77,-272.84,-21,540,-956,29.0,26.8,8.0,28.7,27.7,8.2,5.73,1.71,9.7,32.0
2016-09-02 00:31:00,0.0,1.93275,0.00074,397.743,0.044,1.3671,0.0030,140.000,45.000,32118.49675,1.95992,404.582,39.126,45.068,45.000,0.00,0.10,-272.78,-272.84,-20,540,-956,29.0,26.7,7.9,28.7,27.7,8.2,5.73,1.85,9.7,31.8
2016-09-02 00:32:00,0.0,1.93320,0.00028,397.775,0.025,1.3714,0.0025,140.000,45.000,32120.48095,1.96047,404.636,39.128,45.068,45.000,0.00,0.10,-272.77,-272.84,-22,540,-956,29.0,26.8,8.0,28.7,27.8,8.2,5.73,1.80,9.7,31.9
2016-09-02 00:33:00,0.0,1.93261,0.00061,397.662,0.081,1.3850,0.0072,140.000,45.000,32123.68669,1.96021,404.595,39.127,45.068,45.000,0.00,0.10,-272.76,-272.83,-20,541,-956,29.0,27.1,8.2,28.7,27.9,8.3,5.73,1.75,9.7,31.9
2016-09-02 00:34:00,0.0,1.93017,0.00101,397.388,0.128,1.3982,0.0045,140.002,45.000,32126.80644,1.95805,404.390,39.127,45.069,45.000,0.00,0.10,-272.77,-272.83,-21,540,-956,29.0,27.3,8.3,28.7,28.2,8.5,5.73,1.90,9.7,31.9
2016-09-02 00:35:00,0.0,1.92843,0.00063,397.220,0.037,1.3851,0.0089,139.999,45.000,32128.48735,1.95601,404.147,39.134,45.069,45.000,0.00,0.10,-272.77,-272.83,-21,541,-956,29.0,26.9,8.1,28.7,28.1,8.4,5.73,1.66,9.7,31.9
2016-09-02 00:36:00,0.0,1.92723,0.00042,397.076,0.040,1.3789,0.0080,140.000,45.000,32131.44966,1.95458,403.968,39.136,45.069,45.000,0.00,0.10,-272.77,-272.83,-20,541,-956,29.0,26.8,8.0,28.7,27.9,8.3,5.73,1.97,9.7,32.0
2016-09-02 00:37:00,0.0,1.92745,0.00045,397.086,0.038,1.3745,0.0039,140.000,45.000,32133.00673,1.95472,403.951,39.152,45.068,45.000,0.00,0.10,-272.77,-272.83,-22,541,-956,29.0,26.8,8.0,28.7,27.8,8.3,5.73,1.63,9.7,32.0
2016-09-02 00:38:00,0.0,1.92747,0.00050,397.090,0.036,1.3701,0.0037,139.998,45.000,32133.07439,1.95464,403.935,39.187,45.068,45.000,0.00,0.10,-272.78,-272.84,-20,541,-956,29.0,26.6,7.9,28.7,27.7,8.2,5.73,1.97,9.7,32.1
2016-09-02 00:39:00,0.0,1.92873,0.00134,397.238,0.186,1.3696,0.0087,139.999,45.000,32134.36952,1.95578,404.071,39.215,45.068,45.000,0.00,0.10,-272.76,-272.84,-21,541,-956,29.0,26.7,8.0,28.7,27.6,8.2,5.73,1.64,9.7,32.1
2016-09-02 00:40:00,0.0,1.93540,0.00175,398.192,0.284,1.4134,0.0138,140.001,45.000,32137.48204,1.96358,405.282,39.221,45.068,45.000,0.00,0.10,-272.77,-272.83,-21,541,-956,29.0,27.6,8.5,28.7,28.4,8.6,5.73,1.93,9.8,32.0
2016-09-02 00:41:00,0.0,1.93198,0.00163,397.646,0.205,1.3956,0.0104,140.000,45.000,32138.36036,1.95970,404.628,39.221,45.068,45.000,0.00,0.10,-272.76,-272.84,-20,541,-956,29.0,27.2,8.2,28.7,28.3,8.5,5.73,1.71,9.8,31.9
2016-09-02 00:42:00,0.0,1.93184,0.00075,397.510,0.088,1.4028,0.0036,140.000,45.000,32138.58359,1.95980,404.536,39.205,45.068,45.000,0.00,0.10,-272.77,-272.84,-22,541,-956,29.1,27.3,8.3,28.7,28.4,8.6,5.73,1.86,9.8,31.8
2016-09-02 00:43:00,0.0,1.93062,0.00148,397.411,0.199,1.3895,0.0093,139.999,45.000,32137.36360,1.95825,404.361,39.201,45.068,45.000,0.00,0.10,-272.76,-272.83,-20,541,-956,29.0,27.0,8.1,28.7,28.1,8.5,5.73,1.78,9.8,32.0
2016-09-02 00:44:00,0.0,1.93282,0.00230,397.855,0.330,1.4081,0.0108,139.999,45.000,32138.10159,1.96094,404.916,39.193,45.069,45.000,0.00,0.10,-272.78,-272.83,-21,541,-956,29.0,27.4,8.3,28.7,28.4,8.6,5.73,1.78,9.8,32.1
2016-09-02 00:45:00,0.0,1.93271,0.00194,397.893,0.303,1.4001,0.0109,139.999,45.000,32140.27989,1.96055,404.903,39.205,45.069,45.000,0.00,0.10,-272.77,-272.84,-21,541,-956,29.1,27.3,8.3,28.7,28.3,8.5,5.73,1.87,9.8,32.2
2016-09-02 00:46:00,0.0,1.93105,0.00125,397.549,0.188,1.4005,0.0101,139.999,45.000,32140.65499,1.95891,404.565,39.224,45.069,45.000,0.00,0.10,-272.77,-272.83,-20,541,-956,29.1,27.3,8.3,28.7,28.3,8.5,5.73,1.70,9.8,32.1
2016-09-02 00:47:00,0.0,1.93134,0.00061,397.577,0.083,1.4129,0.0061,140.003,45.000,32140.46239,1.95949,404.650,39.249,45.069,45.000,0.00,0.10,-272.77,-272.84,-22,541,-956,29.1,27.5,8.4,28.7,28.5,8.6,5.73,1.93,9.8,32.0
2016-09-02 00:48:00,0.0,1.93320,0.00096,397.891,0.174,1.4129,0.0086,140.002,45.000,32141.98275,1.96126,404.970,39.249,45.068,45.000,0.00,0.10,-272.77,-272.84,-20,541,-956,29.1,27.5,8.4,28.7,28.5,8.6,5.73,1.65,9.8,32.0
2016-09-02 00:49:00,0.0,1.93201,0.00123,397.731,0.210,1.4003,0.0069,140.000,45.000,32143.01384,1.95993,404.750,39.263,45.068,45.000,0.00,0.10,-272.77,-272.83,-21,541,-956,29.1,27.2,8.2,28.7,28.3,8.5,5.73,1.97,9.8,32.0
2016-09-02 00:50:00,0.0,1.93259,0.00092,397.876,0.148,1.4034,0.0107,140.000,45.000,32142.65474,1.96049,404.899,39.297,45.068,45.000,0.00,0.10,-272.76,-272.83,-21,541,-956,29.1,27.3,8.3,28.7,28.3,8.6,5.73,1.63,9.8,32.0
2016-09-02 00:51:00,0.0,1.93073,0.00142,397.539,0.258,1.3954,0.0089,140.000,45.000,32142.91007,1.95857,404.536,39.306,45.068,45.000,0.00,0.10,-272.78,-272.84,-20,541,-956,29.1,27.1,8.2,28.7,28.2,8.5,5.73,1.98,9.8,32.1
2016-09-02 00:52:00,0.0,1.93091,0.00144,397.611,0.208,1.3970,0.0049,140.000,45.000,32142.18341,1.95879,404.612,39.313,45.068,45.000,0.00,0.10,-272.77,-272.84,-22,541,-956,29.1,27.0,8.2,28.7,28.1,8.4,5.73,1.64,9.8,32.1
2016-09-02 00:53:00,0.0,1.92731,0.00156,397.057,0.255,1.3741,0.0066,140.002,45.000,32144.21296,1.95444,403.911,39.312,45.068,45.000,0.00,0.10,-272.77,-272.83,-20,541,-956,29.1,26.6,8.0,28.8,27.8,8.3,5.73,1.95,9.8,32.1
2016-09-02 00:54:00,0.0,1.92982,0.00161,397.451,0.236,1.3967,0.0162,139.999,45.000,32144.29261,1.95757,404.434,39.303,45.068,45.000,0.00,0.10,-272.76,-272.84,-21,541,-956,29.1,27.2,8.3,28.8,27.9,8.4,5.73,1.67,9.8,32.2
2016-09-02 00:55:00,0.0,1.93332,0.00214,398.020,0.329,1.4111,0.0138,140.001,45.000,32144.46689,1.96135,405.092,39.269,45.068,45.000,0.00,0.10,-272.77,-272.84,-21,541,-956,29.1,27.4,8.4,28.8,28.5,8.7,5.73,1.91,9.8,32.1
2016-09-02 00:56:00,0.0,1.93099,0.00307,397.690,0.497,1.3985,0.0096,140.003,45.000,32144.11167,1.95908,404.716,39.263,45.069,45.000,0.00,0.10,-272.76,-272.84,-20,541,-956,29.1,27.1,8.2,28.7,28.2,8.5,5.73,1.71,9.8,32.2
2016-09-02 00:57:00,0.0,1.93016,0.00109,397.508,0.194,1.3933,0.0087,139.999,45.000,32143.90380,1.95764,404.459,39.302,45.069,45.000,0.00,0.10,-272.76,-272.83,-22,541,-956,29.1,27.1,8.2,28.8,28.0,8.4,5.73,1.86,9.8,32.3
2016-09-02 00:58:00,0.0,1.93065,0.00140,397.607,0.194,1.4043,0.0081,139.998,45.000,32142.50285,1.95872,404.652,39.311,45.069,45.000,0.00,0.10,-272.77,-272.84,-20,541,-956,29.1,27.2,8.2,28.8,28.2,8.6,5.73,1.78,9.9,32.2
2016-09-02 00:59:00,0.0,1.93148,0.00163,397.809,0.306,1.4072,0.0098,140.001,45.000,32144.49900,1.95942,404.852,39.313,45.068,45.000,0.00,0.10,-272.77,-272.83,-22,541,-956,29.1,27.3,8.3,28.8,28.2,8.5,5.73,1.80,9.9,32.3
2016-09-02 01:00:00,0.0,1.92791,0.00144,397.254,0.246,1.3955,0.0168,140.000,45.000,32145.67468,1.95572,404.244,39.317,45.068,45.000,0.00,0.10,-272.77,-272.84,-20,541,-956,29.1,26.9,8.1,28.8,28.2,8.5,5.73,1.84,9.8,32.2
2016-09-02 01:01:00,0.0,1.93088,0.00164,397.792,0.265,1.4068,0.0170,140.000,45.000,32147.07716,1.95879,404.832,39.366,45.068,45.000,0.00,0.10,-272.77,-272.83,-20,541,-956,29.1,27.3,8.4,28.8,28.1,8.5,5.73,1.73,9.9,32.2
2016-09-02 01:02:00,0.0,1.92775,0.00259,397.358,0.441,1.3945,0.0135,140.000,45.000,32146.43738,1.95535,404.336,39.377,45.068,45.000,0.00,0.10,-272.77,-272.84,-21,541,-956,29.1,27.0,8.2,28.8,28.2,8.5,5.73,1.89,9.9,32.3
2016-09-02 01:03:00,0.0,1.93225,0.00149,398.111,0.298,1.4042,0.0082,140.001,45.000,32147.08123,1.96018,405.143,39.419,45.068,45.000,0.00,0.10,-272.76,-272.83,-20,541,-956,29.1,27.2,8.3,28.8,28.2,8.5,5.73,1.69,9.9,32.3
2016-09-02 01:04:00,0.0,1.92623,0.00274,397.167,0.468,1.3831,0.0099,140.000,45.000,32148.46894,1.95400,404.108,39.437,45.068,45.000,0.00,0.10,-272.77,-272.83,-22,541,-956,29.1,26.6,8.0,28.8,27.9,8.4,5.73,1.93,9.9,32.1
2016-09-02 01:05:00,0.0,1.92697,0.00330,397.338,0.472,1.3907,0.0188,140.001,45.000,32148.86935,1.95434,404.278,39.437,45.068,44.999,0.00,0.10,-272.77,-272.84,-20,542,-956,29.1,27.0,8.2,28.8,27.8,8.3,5.73,1.65,9.9,32.1
2016-09-02 01:06:00,0.0,1.92661,0.00202,397.182,0.312,1.3849,0.0094,140.000,45.000,32147.09877,1.95414,404.105,39.437,45.068,44.999,0.00,0.10,-272.77,-272.84,-21,541,-956,29.1,26.8,8.1,28.8,27.8,8.4,5.73,1.96,9.9,32.2
2016-09-02 01:07:00,0.0,1.92987,0.00086,397.764,0.200,1.4089,0.0060,140.001,45.000,32147.79465,1.95774,404.809,39.422,45.068,45.000,0.00,0.10,-272.76,-272.83,-21,542,-956,29.1,27.3,8.4,28.8,28.1,8.6,5.73,1.63,9.9,32.1
2016-09-02 01:08:00,0.0,1.92960,0.00092,397.785,0.162,1.4147,0.0070,140.002,45.000,32149.51772,1.95784,404.885,39.380,45.068,45.000,0.00,0.10,-272.77,-272.84,-20,541,-956,29.1,27.4,8.4,28.8,28.4,8.7,5.73,1.98,9.9,32.1
2016-09-02 01:09:00,0.0,1.93201,0.00162,398.220,0.308,1.4071,0.0047,140.001,45.000,32148.06867,1.95992,405.268,39.378,45.068,45.000,0.00,0.10,-272.76,-272.84,-22,542,-956,29.1,27.3,8.3,28.8,28.3,8.6,5.73,1.63,9.9,32.0
2016-09-02 01:10:00,0.0,1.93147,0.00271,398.276,0.440,1.4075,0.0076,140.000,45.000,32148.84000,1.95951,405.338,39.374,45.069,45.001,0.00,0.10,-272.76,-272.83,-20,541,-956,29.1,27.2,8.3,28.8,28.3,8.6,5.73,1.98,9.9,32.2
2016-09-02 01:11:00,0.0,1.93207,0.00119,398.340,0.188,1.4077,0.0080,140.000,45.000,32149.08584,1.96015,405.408,39.360,45.069,45.001,0.00,0.10,-272.76,-272.83,-22,542,-956,29.1,27.2,8.3,28.8,28.3,8.6,5.73,1.63,9.9,32.1
2016-09-02 01:12:00,0.0,1.92507,0.00353,397.386,0.503,1.3749,0.0103,140.002,45.000,32149.71379,1.95229,404.259,39.370,45.069,45.001,0.00,0.10,-272.78,-272.84,-20,542,-956,29.1,26.5,7.9,28.8,27.7,8.3,5.73,1.97,9.9,32.2
2016-09-02 01:13:00,0.0,1.93180,0.00179,398.495,0.256,1.3968,0.0044,140.000,45.000,32150.25622,1.95963,405.501,39.375,45.069,45.001,0.00,0.10,-272.77,-272.83,-21,541,-956,29.1,27.0,8.2,28.8,27.9,8.4,5.73,1.64,9.9,32.3
2016-09-02 01:14:00,0.0,1.93005,0.00321,398.171,0.483,1.3915,0.0070,140.001,45.000,32150.01860,1.95762,405.142,39.375,45.069,45.001,0.00,0.10,-272.77,-272.83,-21,542,-956,29.1,26.9,8.1,28.8,27.9,8.4,5.73,1.96,9.9,32.2
2016-09-02 01:15:00,0.0,1.93062,0.00326,398.173,0.601,1.3997,0.0063,140.000,45.000,32150.26371,1.95864,405.209,39.375,45.069,45.000,0.00,0.10,-272.77,-272.84,-20,542,-956,29.1,27.0,8.2,28.8,28.0,8.5,5.73,1.65,9.9,32.3
2016-09-02 01:16:00,0.0,1.92656,0.00415,397.541,0.720,1.3880,0.0139,139.999,45.000,32148.00108,1.95394,404.468,39.375,45.069,45.000,0.00,0.10,-272.77,-272.84,-22,542,-956,29.1,26.8,8.1,28.9,27.8,8.4,5.73,1.94,9.9,32.4
2016-09-02 01:17:00,0.0,1.92858,0.00251,397.946,0.342,1.4046,0.0126,140.001,45.000,32150.64593,1.95686,405.016,39.378,45.069,45.000,0.00,0.10,-272.76,-272.83,-20,542,-956,29.1,27.0,8.2,28.9,28.1,8.6,5.73,1.67,9.9,32.4
2016-09-02 01:18:00,0.0,1.92344,0.00240,397.198,0.380,1.3813,0.0092,140.000,45.000,32151.97125,1.95067,404.094,39.388,45.069,45.000,0.00,0.10,-272.77,-272.83,-21,541,-956,29.2,26.6,8.0,28.8,27.7,8.3,5.73,1.92,10.0,32.4
2016-09-02 01:19:00,0.0,1.92541,0.00339,397.568,0.519,1.3873,0.0134,140.001,45.000,32151.74722,1.95269,404.489,39.430,45.068,45.000,0.00,0.10,-272.77,-272.84,-20,542,-956,29.2,26.9,8.2,28.8,27.7,8.3,5.73,1.69,9.9,32.3
2016-09-02 01:20:00,0.0,1.93142,0.00322,398.751,0.635,1.4194,0.0125,140.000,45.000,32154.08015,1.95954,405.862,39.445,45.068,45.000,0.00,0.10,-272.77,-272.83,-21,541,-956,29.2,27.5,8.5,28.8,28.3,8.6,5.73,1.90,9.9,32.4
2016-09-02 01:21:00,0.0,1.92490,0.00507,397.719,0.927,1.3994,0.0269,140.001,45.000,32155.35731,1.95318,404.782,39.477,45.068,45.000,0.00,0.10,-272.76,-272.84,-21,542,-956,29.1,26.7,8.0,28.8,28.3,8.6,5.73,1.71,10.0,32.4
2016-09-02 01:22:00,0.0,1.92495,0.00367,397.686,0.681,1.3834,0.0116,139.999,45.000,32153.13125,1.95201,404.572,39.500,45.068,45.000,0.00,0.10,-272.77,-272.84,-20,542,-956,29.2,26.7,8.1,28.8,27.6,8.3,5.73,1.88,10.0,32.4
2016-09-02 01:23:00,0.0,1.92907,0.00125,398.459,0.221,1.4015,0.0083,140.000,45.000,32151.46841,1.95695,405.495,39.500,45.068,45.000,0.00,0.10,-272.76,-272.84,-22,542,-956,29.2,27.0,8.3,28.8,28.0,8.5,5.73,1.73,10.0,32.4
2016-09-02 01:24:00,0.0,1.92663,0.00101,398.039,0.139,1.3930,0.0079,139.999,45.000,32153.05914,1.95444,405.033,39.500,45.068,45.000,0.00,0.10,-272.76,-272.83,-20,542,-956,29.2,26.7,8.1,28.9,27.9,8.5,5.73,1.86,10.0,32.4
2016-09-02 01:25:00,0.0,1.92560,0.00171,397.913,0.290,1.3926,0.0082,140.003,45.000,32155.42124,1.95310,404.882,39.500,45.068,45.000,0.00,0.10,-272.77,-272.84,-22,542,-956,29.2,26.8,8.1,28.8,27.8,8.4,5.73,1.75,10.0,32.5
2016-09-02 01:26:00,0.0,1.92562,0.00099,398.002,0.179,1.3941,0.0035,139.999,45.000,32154.63354,1.95331,404.989,39.499,45.068,45.000,0.00,0.10,-272.77,-272.83,-20,542,-956,29.2,26.8,8.1,28.8,27.8,8.4,5.73,1.84,10.0,32.4
2016-09-02 01:27:00,0.0,1.92393,0.00106,397.577,0.244,1.3866,0.0054,139.999,45.000,32155.43285,1.95142,404.518,39.504,45.068,45.000,0.00,0.10,-272.76,-272.83,-21,541,-956,29.2,26.7,8.1,28.9,27.8,8.4,5.73,1.76,10.0,32.4
2016-09-02 01:28:00,0.0,1.92500,0.00131,397.769,0.388,1.3898,0.0060,139.998,45.000,32156.04120,1.95256,404.729,39.521,45.068,45.000,0.00,0.10,-272.78,-272.83,-21,542,-956,29.2,26.7,8.1,28.9,27.7,8.4,5.73,1.84,10.0,32.5
2016-09-02 01:29:00,0.0,1.92516,0.00082,397.852,0.194,1.3844,0.0027,140.000,45.000,32156.31335,1.95256,404.779,39.510,45.068,45.000,0.00,0.10,-272.77,-272.84,-20,542,-956,29.2,26.6,8.1,28.9,27.7,8.4,5.73,1.77,10.0,32.4
2016-09-02 01:30:00,0.0,1.92878,0.00301,398.701,0.644,1.3985,0.0051,139.998,45.000,32154.85127,1.95661,405.726,39.503,45.068,45.000,0.00,0.10,-272.77,-272.83,-22,542,-956,29.2,26.9,8.2,28.9,27.9,8.5,5.73,1.83,10.0,32.2
2016-09-02 01:31:00,0.0,1.92596,0.00203,398.229,0.398,1.3834,0.0037,140.001,45.000,32157.71845,1.95330,405.150,39.500,45.069,45.000,0.00,0.10,-272.76,-272.84,-20,542,-956,29.3,26.6,8.1,28.9,27.7,8.3,5.73,1.77,10.0,32.4
2016-09-02 01:32:00,0.0,1.92787,0.00238,398.672,0.540,1.3957,0.0062,139.999,45.000,32157.01574,1.95578,405.701,39.500,45.069,45.000,0.00,0.10,-272.77,-272.84,-22,542,-956,29.2,26.8,8.1,28.9,27.8,8.4,5.73,1.82,10.0,32.5
2016-09-02 01:33:00,0.0,1.92587,0.00264,398.189,0.646,1.3833,0.0064,139.999,45.000,32155.94434,1.95312,405.101,39.516,45.069,45.000,0.00,0.10,-272.76,-272.83,-20,542,-956,29.2,26.5,8.0,28.9,27.6,8.3,5.73,1.77,10.0,32.3
2016-09-02 01:34:00,0.0,1.92794,0.00180,398.642,0.331,1.3892,0.0038,140.000,45.000,32157.60966,1.95561,405.621,39.550,45.069,45.000,0.00,0.10,-272.76,-272.83,-21,542,-956,29.2,26.6,8.1,28.9,27.7,8.4,5.73,1.83,10.0,32.3
2016-09-02 01:35:00,0.0,1.92811,0.00257,398.705,0.566,1.3848,0.0032,139.999,45.000,32159.89238,1.95545,405.639,39.565,45.068,45.000,0.00,0.10,-272.77,-272.84,-21,542,-956,29.3,26.5,8.1,28.9,27.6,8.4,5.73,1.77,10.0,32.3
2016-09-02 01:36:00,0.0,1.92522,0.00416,398.113,0.842,1.3814,0.0121,140.000,45.000,32159.84527,1.95270,405.044,39.574,45.068,45.000,0.00,0.10,-272.77,-272.84,-21,542,-956,29.2,26.5,8.0,28.9,27.5,8.3,5.73,1.83,10.0,32.3
2016-09-02 01:37:00,0.0,1.92466,0.00271,397.937,0.622,1.3848,0.0074,140.001,45.000,32159.18750,1.95205,404.868,39.582,45.068,45.000,0.00,0.10,-272.75,-272.83,-21,542,-956,29.2,26.6,8.1,28.9,27.6,8.3,5.73,1.76,10.0,32.3
2016-09-02 01:38:00,0.0,1.92510,0.00180,398.052,0.366,1.3942,0.0033,139.999,45.000,32156.55817,1.95290,405.060,39.576,45.068,45.000,0.00,0.10,-272.77,-272.83,-20,542,-956,29.2,26.7,8.1,28.9,27.7,8.4,5.73,1.84,10.1,32.3
2016-09-02 01:39:00,0.0,1.91409,0.00278,396.124,0.471,1.3430,0.0230,140.000,45.000,32156.83529,1.94093,402.846,39.564,45.068,45.000,0.00,0.10,-272.77,-272.84,-22,542,-956,29.2,25.4,7.4,28.9,27.0,8.0,5.73,1.75,10.1,32.3
2016-09-02 01:40:00,0.0,1.91545,0.00348,396.324,0.553,1.3316,0.0114,139.997,45.000,32156.69387,1.94126,402.917,39.563,45.068,45.000,0.00,0.10,-272.77,-272.83,-20,542,-956,29.2,25.5,7.5,28.9,26.3,7.7,5.73,1.85,10.1,32.4
2016-09-02 01:41:00,0.0,1.92251,0.00314,397.536,0.549,1.3675,0.0097,139.998,45.000,32158.05778,1.94969,404.387,39.530,45.068,45.000,0.00,0.10,-272.76,-272.83,-22,542,-956,29.3,26.2,7.9,28.9,27.0,8.0,5.73,1.74,10.1,32.4
2016-09-02 01:42:00,0.0,1.92380,0.00371,397.669,0.647,1.3736,0.0205,140.000,45.000,32158.64299,1.95080,404.519,39.500,45.069,45.000,0.00,0.10,-272.78,-272.83,-20,542,-956,29.3,26.4,8.0,28.9,27.1,8.1,5.73,1.86,10.1,32.4
2016-09-02 01:43:00,0.0,1.92422,0.00118,397.737,0.163,1.3841,0.0038,140.001,45.000,32159.70544,1.95161,404.661,39.500,45.069,45.001,0.00,0.10,-272.77,-272.84,-21,542,-956,29.3,26.5,8.0,28.9,27.5,8.3,5.73,1.73,10.1,32.4
2016-09-02 01:44:00,0.0,1.92738,0.00167,398.125,0.263,1.3937,0.0078,139.999,45.000,32160.52810,1.95491,405.102,39.500,45.069,45.001,0.00,0.10,-272.77,-272.83,-21,542,-956,29.3,26.8,8.2,29.0,27.6,8.4,5.73,1.87,10.1,32.4
2016-09-02 01:45:00,0.0,1.92657,0.00183,397.796,0.390,1.3950,0.0144,140.001,45.000,32160.89150,1.95453,404.818,39.500,45.069,45.001,0.00,0.10,-272.76,-272.84,-21,542,-956,29.3,26.6,8.1,29.0,27.8,8.5,5.73,1.72,10.1,32.2
2016-09-02 01:46:00,0.0,1.93199,0.00353,398.712,0.738,1.4019,0.0160,139.998,45.000,32161.41322,1.95954,405.712,39.501,45.069,45.001,0.00,0.10,-272.77,-272.84,-21,542,-956,29.3,27.0,8.3,29.0,27.7,8.5,5.73,1.89,10.1,32.3